Dauntless Aviation
Airports Europe Italy
LIMC
MXP

Malpensa

Milano, ITALY

Airport Info
Suggest Updated Information for this Airport

Location

Latitude / Longitude: 45°37'50"N / 8°43'41"E
  45°37.836'N / 8°43.686'E
  45.6306 / 8.7281

Nearby radio navigation aids

MAL MALPENSA VOR/DME on field.
MAL MALPENSA NDB. 346.3° 5.3nm from MAL to field.

Runway Information

Runway 17L/35R

Dimensions: 12861 x 197 ft.
Surface: ASP
 
Runway 17L
Runway 35R
Latitude: 45.642058 45.61575
Longitude: 8.730197 8.737497
Elevation: 745 ft. 745 ft.
Runway true heading: 168.2 348.2
 

Runway 17R/35L

Dimensions: 12861 x 197 ft.
Surface: ASP
 
Runway 17R
Runway 35L
Latitude: 45.645461 45.614797
Longitude: 8.718725 8.727208
Elevation: 764 ft. 764 ft.
Runway true heading: 168.2 348.2
 

Instrument Procedures

  Aircraft Parking Docking Chart - T2
  Aerodrome Ground Movement Chart
  Aerodrome Ground Movement Chart: Aircraft Code F
  Aerodrome Chart
  Aircraft Parking Docking Chart: T1

STARs (Standard Terminal Arrivals)

  Link Routes and STAR NO-RNAV Milano Malpensa
  Link Routes and STAR P-RNAV Milano Malpensa

IAPs (Instrument Approach Procedures)

  LOC Rwy 17L
  ILS Y Rwy 35R
  VOR Rwy 17L
  ILS Y Rwy 35L
  VOR Rwy 35L
  Visual Approach Chart
  RNAV (GNSS) Rwy 35L
  ILS Z Rwy 35L
  ILS Z Rwy 35R
  ILS-X Rwy 35L
  L Rwy 35R
  ILS Z Rwy 17L
  Hotspot MAP (Not for Navigation)
  ILS Y Rwy 17L
  VOR Rwy 35R
  Low Visibility Procedures Chart
  Aerodrome Obstacle Chart - Type A Rwy 35R/17L
  Aerodrome Obstacle Chart - Type A Rwy 35L/17R
  Precision Approach Terrain Chart Rwy 35R
  Precision Approach Terrain Chart Rwy 35L

Departure Procedures

  SIDs Rwy 35L Transition SEGMENTS to ENROUTE
  Initial Climb Procedure and SIDs Rwy 35L
  SIDs Rwy 35R Transition SEGMENTS to ENROUTE
  Initial Climb Procedure and SIDs Rwy 35R
  Initial Climb Procedures and SIDs Rwy 17L/R
  SIDs Rwy 17L/R Transition SEGMENTS to ENROUTE
Satellite photo at:
Airport distance calculator
From:
Weather Reports

METAR

LIMC

LIMC 301450Z 36010KT 9999 BKN070 22/18 Q1020 NOSIG
LSZA
24.3nm N
LSZA 301450Z VRB02KT 9999 FEW020 BKN090 22/18 Q1021 NOSIG
LIML
24.7nm E
LIML 301450Z 01003KT 290V060 9999 FEW050 BKN080 26/16 Q1019 NOSIG
LSZL
32.8nm N
LSZL 301450Z AUTO 28003KT 230V320 9999NDV OVC100 23/18 Q1021 RMK

TAF

LIMC
TAF LIMC 301100Z 3012/3118 01005KT 9999 SCT050
LIMN
7.3nm S
TAF LIMN 301100Z 3012/3021 35005KT 9999 SCT030 SCT050 TEMPO 3012/3016 5000 SHRA FEW020CB SCT030
LSZA
24.3nm N
TAF LSZA 301125Z 3012/3021 VRB03KT 9999 FEW020 BKN090
LIML
24.7nm E
TAF LIML 301100Z 3012/3112 35005KT 9999 BKN050
LSZL
32.8nm N
TAF LSZL 300525Z 3006/3015 VRB03KT 9999 FEW017 SCT023 BKN110
Safelog

 

Dauntless Aviation

© 2007-2016 Dauntless Aviation, all rights reserved
Information provided via PilotNav comes from a variety of official and unofficial data sources. As errors are possible, do not use PilotNav for primary flight planning purposes. Verify any information that you receive via PilotNav with current and canonical charts and other official documents. The material in this database is subject to database copyrights held by Dauntless Aviation and may not be copied without the express permission of Dauntless Aviation - licenses for use of part of all of this data are available for purchase; enquire via the Dauntless Aviation helpdesk. A number of mechanisms and markers exist in the database to protect against and identify infringement / copyright. Automated queries against this website are stictly prohibited, and all activity is logged and analyzed.